This demonstration page uses our WeatherBlox Daily Observations layout. Learn more.

Left ArrowRight Arrow

53.62937, 11.41316

Hourly Observations for April 29, 2016

Temp ( °F °C ) Dew Point ( °F °C ) Humidity (%) Winds ( mph kmh ) Pressure ( in mb ) Visibility ( mi km ) Precip ( " mm )
6:20 am 06:20 Mostly Sunny 36 2 32 0 87 87 SE 8 13 29.97 1015 7 11 N/A
6:50 am 06:50 Mostly Sunny 37 3 32 0 81 81 SE 7 11 30.00 1016 7 11 N/A
7:20 am 07:20 Mostly Sunny 37 3 32 0 81 81 SSE 8 13 30.00 1016 7 11 N/A
7:50 am 07:50 Mostly Sunny 39 4 34 1 81 81 SSE 10 17 30.00 1016 7 11 N/A
8:20 am 08:20 Mostly Sunny 41 5 34 1 76 76 S 10 17 30.00 1016 7 11 N/A
8:50 am 08:50 Mostly Sunny 43 6 36 2 76 76 S 12 19 30.00 1016 7 11 N/A
9:20 am 09:20 Mostly Sunny 45 7 36 2 71 71 SSE 9 15 30.00 1016 7 11 N/A
9:50 am 09:50 Mostly Sunny 46 8 36 2 66 66 S 12 19 30.00 1016 7 11 N/A
10:20 am 10:20 Mostly Sunny 48 9 37 3 66 66 S 14 22 30.00 1016 7 11 N/A
10:50 am 10:50 Mostly Sunny 50 10 36 2 58 58 S 15 24 30.00 1016 7 11 N/A
11:20 am 11:20 Mostly Sunny 52 11 39 4 62 62 S 14 22 30.00 1016 7 11 N/A
11:50 am 11:50 Mostly Sunny 52 11 36 2 54 54 S 14 22 30.00 1016 30 48 N/A
12:20 pm 12:20 Mostly Sunny 52 11 34 1 50 50 S 17 28 30.00 1016 7 11 N/A
12:50 pm 12:50 Mostly Sunny 54 12 32 0 44 44 SSW 17 28 30.00 1016 7 11 N/A
1:10 pm 13:10 Mostly Sunny 55 13 32 0 41 41 SSW 16 26 30.00 1016 7 11 N/A
1:20 pm 13:20 Mostly Sunny 54 12 32 0 44 44 S 16 26 30.00 1016 7 11 N/A
1:50 pm 13:50 Mostly Sunny 55 13 30 -1 38 38 SSW 15 24 30.00 1016 7 11 N/A
2:20 pm 14:20 Mostly Sunny 55 13 32 0 41 41 S 18 30 30.00 1016 7 11 N/A
2:50 pm 14:50 Mostly Sunny 55 13 32 0 41 41 S 15 24 30.00 1016 7 11 N/A
2:55 pm 14:55 Mostly Sunny 55 13 32 0 41 41 S 17 28 30.00 1016 7 11 N/A
3:20 pm 15:20 Mostly Sunny 55 13 32 0 41 41 S 20 31 30.00 1016 7 11 N/A
3:50 pm 15:50 Mostly Sunny 55 13 32 0 41 41 S 18 30 30.00 1016 7 11 N/A
4:07 pm 16:07 Mostly Sunny 55 13 34 1 44 44 S 17 28 30.00 1016 7 11 N/A
4:20 pm 16:20 Mostly Sunny 57 14 34 1 41 41 S 18 30 30.00 1016 7 11 N/A
4:50 pm 16:50 Mostly Sunny 55 13 32 0 41 41 S 17 28 30.00 1016 7 11 N/A
5:20 pm 17:20 Mostly Sunny 55 13 32 0 41 41 S 16 26 30.00 1016 7 11 N/A
5:50 pm 17:50 Mostly Sunny 55 13 34 1 44 44 SSE 15 24 30.00 1016 7 11 N/A
6:20 pm 18:20 Mostly Sunny 55 13 34 1 44 44 SSE 14 22 30.00 1016 7 11 N/A
6:50 pm 18:50 Mostly Sunny 55 13 32 0 41 41 SSE 13 20 30.00 1016 7 11 N/A

Powered by AerisWeather